Content
SEND FEEDBACK

Daily
Averages
Monthly
Summary
France

LE HAVRE, FRANCE


Home > Europe > France
Elevation: 103 meters     Latitude: 49 31N     Longitude: 000 04E

WEATHER
 
SELECT A DAY
Number of Records: 176,032;   Date Range: 3/4/97 - 7/27/14
 
SHARE

PRINT THIS DATA

[ ← Previous Day ]
WEATHER ALMANAC - 20 APRIL, 2013
[ Next Day → ]
[ °F ]   °C
Weather ElementAverageHighLow
Temperature6.6 °C10 °C (2:30 pm)2 °C (7:30 am)
Dewpoint2.9 °C5 °C (12:30 am)1 °C (7:30 am)
Humidity78.6 %93 % (12:30 am)62 % (11:30 am)
Barometer1030.5 hPa1032.2 hPa (3:00 am)1027.1 hPa (11:30 pm)
Wind Speed17.2 km/h29.6 km/h (12:30 pm)
Weather ElementAverage
Visibility10 km
Wind DirectionNE (50.2 °)

Weather ElementTotal
Precipitation---
Heating Degree Days12.3 (Base 18.3)
Averaged from 47 records on 20 April, 2013
WEATHER CONDITIONS BREAKOUT
WIND DIRECTION BREAKOUT
WEATHER BY HOUR - 20 APRIL, 2013
[ °F ]   °C
Local TimeTemperatureDewpointHumidityBarometerVisibilityWind DirectionWind SpeedGust SpeedPrecipitationEventsConditions
12:30 AM6 °C5 °C93 %1031.2 hPa10 kmENE (70°)11.1 km/h
1:00 AM6 °C5 °C93 %1031.2 hPa10 kmENE (70°)14.8 km/h
1:30 AM6 °C4 °C87 %1031.2 hPa10 kmEast (80°)11.1 km/h
2:00 AM6 °C4 °C87 %1031.2 hPa10 kmEast (90°)9.3 km/h
2:30 AM5 °C4 °C93 %1031.2 hPa10 kmEast (90°)9.3 km/h
3:00 AM5 °C3 °C87 %1032.2 hPa10 kmENE (70°)9.3 km/h
3:30 AM4 °C3 °C93 %1032.2 hPa10 kmENE (60°)7.4 km/hPartly Cloudy
4:00 AM5 °C3 °C87 %1032.2 hPa10 kmENE (60°)11.1 km/hScattered Clouds
4:30 AM4 °C3 °C93 %1032.2 hPa10 kmENE (60°)11.1 km/h
5:00 AM4 °C3 °C93 %1032.2 hPa10 kmNE (50°)11.1 km/h
5:30 AM4 °C3 °C93 %1031.2 hPa10 kmNE (40°)13 km/h
6:00 AM3 °C2 °C93 %1031.2 hPa10 kmNE (40°)13 km/h
6:30 AM3 °C2 °C93 %1032.2 hPa10 kmNNE (20°)11.1 km/h
7:00 AM3 °C2 °C93 %1032.2 hPa10 kmNorth (10°)9.3 km/h
7:30 AM2 °C1 °C93 %1032.2 hPa10 kmNE (40°)11.1 km/h
8:00 AM4 °C2 °C87 %1032.2 hPa10 kmENE (70°)11.1 km/hScattered Clouds
8:30 AM5 °C3 °C87 %1032.2 hPa10 kmENE (60°)11.1 km/hOvercast
9:00 AM6 °C3 °C81 %1032.2 hPa10 kmNE (50°)13 km/hMostly Cloudy
9:30 AM6 °C2 °C76 %1032.2 hPa10 kmENE (60°)18.5 km/hMostly Cloudy
10:00 AM7 °C3 °C76 %1032.2 hPa10 kmNE (40°)18.5 km/hMostly Cloudy
10:30 AM8 °C3 °C71 %1032.2 hPa10 kmNE (50°)20.4 km/hMostly Cloudy
11:00 AM8 °C2 °C66 %1032.2 hPa10 kmNE (50°)16.7 km/hOvercast
11:30 AM9 °C2 °C62 %1032.2 hPa10 kmNE (50°)18.5 km/hPartly Cloudy
12:00 PM9 °C3 °C66 %1032.2 hPa10 kmNNE (20°)20.4 km/hPartly Cloudy
12:30 PM8 °C3 °C71 %1032.2 hPa10 kmNorth (360°)29.6 km/hMostly Cloudy
1:00 PM9 °C3 °C66 %1032.2 hPa10 kmNNE (20°)24.1 km/h
1:30 PM9 °C2 °C62 %1031.2 hPa10 kmNNE (30°)25.9 km/hScattered Clouds
2:00 PM9 °C2 °C62 %1031.2 hPa10 kmNE (40°)22.2 km/h
2:30 PM10 °C3 °C62 %1031.2 hPa10 kmNNE (20°)24.1 km/h
3:00 PM10 °C4 °C66 %1030.1 hPa10 kmNNE (20°)22.2 km/hPartly Cloudy
3:30 PM10 °C3 °C62 %1030.1 hPa10 kmNNE (30°)24.1 km/hPartly Cloudy
4:00 PM10 °C3 °C62 %1030.1 hPa10 kmNNE (20°)24.1 km/hPartly Cloudy
4:30 PM9 °C3 °C66 %1029.1 hPa10 kmNNE (30°)25.9 km/h
5:00 PM9 °C3 °C66 %1029.1 hPa10 kmNE (40°)25.9 km/h
5:30 PM9 °C3 °C66 %1029.1 hPa10 kmNNE (30°)25.9 km/h
6:00 PM9 °C3 °C66 %1028.1 hPa10 kmNNE (30°)25.9 km/h
6:30 PM9 °C3 °C66 %1028.1 hPa10 kmNNE (30°)25.9 km/h
7:00 PM8 °C3 °C71 %1028.1 hPa10 kmNNE (30°)24.1 km/h
7:30 PM8 °C3 °C71 %1028.1 hPa10 kmNNE (20°)25.9 km/h
8:00 PM7 °C3 °C76 %1028.1 hPa10 kmNNE (30°)22.2 km/h
8:30 PM6 °C2 °C76 %1028.1 hPa10 kmNNE (30°)18.5 km/h
9:00 PM6 °C3 °C81 %1028.1 hPa10 kmNE (40°)13 km/h
9:30 PM5 °C3 °C87 %1028.1 hPa10 kmNE (40°)13 km/h
10:00 PM5 °C3 °C87 %1028.1 hPa10 kmNE (50°)14.8 km/h
10:30 PM5 °C3 °C87 %1028.1 hPa10 kmNE (40°)14.8 km/h
11:00 PM4 °C2 °C87 %1028.1 hPa10 kmNNE (30°)9.3 km/h
11:30 PM5 °C3 °C87 %1027.1 hPa10 kmNE (50°)16.7 km/h
Hourly data recorded from LFOH, located 0 kilometers away from Le Havre, France







STORIES FROM OUR PARTNERS